EW2464 Weather Reports


Display with metric or nautical units.
time (UTC)temp
F
wind
direction
speed
MPH
gust
MPH
rain 1hr
in
rain 24hr
in
rain mn
in
humidity
%
barometer
mb
20201126063538 39 112 0.0 0.0 0.00 0.00 0.00 93 1021.8
20201126063106 39 112 0.0 0.0 0.00 0.00 0.00 92 1021.9
20201126062535 39 112 0.0 1.0 0.00 0.00 0.00 92 1021.9
20201126062028 39 112 0.0 1.0 0.00 0.00 0.00 92 1022.0
20201125145636 34 24 0.0 3.0 0.00 0.00 0.00 65 1029.2
20201125145043 34 23 0.0 3.0 0.00 0.00 0.00 65 1029.2
20201125144617 34 23 0.0 2.0 0.00 0.00 0.00 65 1029.6
20201125143100 34 57 0.0 3.0 0.00 0.00 0.00 66 1029.7
20201125142534 34 57 1.0 3.0 0.00 0.00 0.00 65 1029.7
20201125142037 34 83 1.0 3.0 0.00 0.00 0.00 65 1029.8
20201125141538 34 21 0.0 2.0 0.00 0.00 0.00 65 1029.8
20201125140524 33 19 0.0 2.0 0.00 0.00 0.00 66 1029.9
20201125140115 33 19 0.0 3.0 0.00 0.00 0.00 65 1030.0
20201125135526 33 19 0.0 3.0 0.00 0.00 0.00 66 1030.2
20201125135031 33 24 1.0 4.0 0.00 0.00 0.00 66 1030.2
20201125134536 33 5 1.0 4.0 0.00 0.00 0.00 66 1030.2
20201125133025 32 355 0.0 4.0 0.00 0.00 0.00 68 1030.5
20201125132525 32 340 0.0 4.0 0.00 0.00 0.00 69 1030.3
20201125132056 32 338 1.0 4.0 0.00 0.00 0.00 69 1030.4
20201125131620 32 360 0.0 3.0 0.00 0.00 0.00 69 1030.3
20201125131039 32 5 1.0 4.0 0.00 0.00 0.00 69 1030.3
20201125130557 32 360 1.0 4.0 0.00 0.00 0.00 69 1030.3
20201125130116 31 355 1.0 4.0 0.00 0.00 0.00 70 1030.3
20201125125538 31 355 1.0 4.0 0.00 0.00 0.00 70 1030.3
20201125125038 31 360 1.0 3.0 0.00 0.00 0.00 71 1030.3
20201125124610 31 360 0.0 3.0 0.00 0.00 0.00 71 1030.2
20201125124037 31 360 1.0 3.0 0.00 0.00 0.00 71 1030.1
20201125123538 31 360 1.0 4.0 0.00 0.00 0.00 71 1030.1
20201125123132 31 360 1.0 4.0 0.00 0.00 0.00 71 1030.0
20201125122536 31 5 1.0 4.0 0.00 0.00 0.00 72 1030.0
20201125122036 31 5 1.0 4.0 0.00 0.00 0.00 72 1030.0
20201125121544 31 5 1.0 3.0 0.00 0.00 0.00 72 1030.2
20201125121036 31 5 0.0 3.0 0.00 0.00 0.00 72 1030.3
20201125120557 31 5 0.0 3.0 0.00 0.00 0.00 72 1030.4
20201125120132 31 5 1.0 3.0 0.00 0.00 0.00 73 1030.5
20201125115536 31 5 0.0 3.0 0.00 0.00 0.00 72 1030.4
20201125115039 31 5 0.0 3.0 0.00 0.00 0.00 72 1030.3
20201125114617 31 360 0.0 2.0 0.00 0.00 0.00 73 1030.3
20201125114031 31 360 0.0 3.0 0.00 0.00 0.00 73 1030.3
20201125113548 31 360 1.0 3.0 0.00 0.00 0.00 74 1030.3
20201125113038 31 360 1.0 3.0 0.00 0.00 0.00 74 1030.3
20201125112532 31 34 0.0 3.0 0.00 0.00 0.00 73 1030.3
20201125112032 31 34 0.0 3.0 0.00 0.00 0.00 74 1030.4
20201125111618 31 34 0.0 3.0 0.00 0.00 0.00 74 1030.3
20201125111030 31 34 0.0 3.0 0.00 0.00 0.00 74 1030.4
20201125110538 31 34 0.0 3.0 0.00 0.00 0.00 74 1030.4
20201125110114 31 34 0.0 1.0 0.00 0.00 0.00 74 1030.3
20201125105525 31 34 0.0 2.0 0.00 0.00 0.00 74 1030.3
20201125105027 31 34 0.0 2.0 0.00 0.00 0.00 74 1030.4
20201125104614 31 34 0.0 3.0 0.00 0.00 0.00 74 1030.3
20201125104037 31 34 0.0 3.0 0.00 0.00 0.00 75 1030.4
20201125103528 31 34 0.0 3.0 0.00 0.00 0.00 75 1030.4
20201125103032 31 9 0.0 2.0 0.00 0.00 0.00 75 1030.4
20201125102523 31 9 0.0 3.0 0.00 0.00 0.00 76 1030.4
20201125102023 31 9 0.0 3.0 0.00 0.00 0.00 76 1030.5
20201125101618 31 5 0.0 2.0 0.00 0.00 0.00 77 1030.5
20201125101031 31 5 0.0 3.0 0.00 0.00 0.00 77 1030.5
20201125100524 31 5 1.0 3.0 0.00 0.00 0.00 77 1030.6
20201125100050 31 9 0.0 3.0 0.00 0.00 0.00 77 1030.6
20201125095519 31 9 0.0 1.0 0.00 0.00 0.00 78 1030.5
20201125095024 31 9 0.0 3.0 0.00 0.00 0.00 78 1030.6
20201125094547 31 9 0.0 3.0 0.00 0.00 0.00 78 1030.6
20201125094027 31 9 0.0 3.0 0.00 0.00 0.00 78 1030.6
20201125093521 31 9 0.0 3.0 0.00 0.00 0.00 78 1030.7
20201125093058 31 9 0.0 4.0 0.00 0.00 0.00 78 1030.7
20201125092519 31 9 1.0 3.0 0.00 0.00 0.00 78 1030.8
20201125092027 31 9 0.0 2.0 0.00 0.00 0.00 78 1030.7
20201125091538 31 9 0.0 2.0 0.00 0.00 0.00 78 1030.7
20201125091026 31 9 0.0 1.0 0.00 0.00 0.00 79 1030.6
20201125090522 31 9 0.0 0.0 0.00 0.00 0.00 79 1030.7
20201125090108 31 9 0.0 1.0 0.00 0.00 0.00 79 1030.7
20201125085543 31 9 0.0 1.0 0.00 0.00 0.00 79 1030.6
20201125085032 31 9 0.0 1.0 0.00 0.00 0.00 79 1030.7
20201125084540 31 9 0.0 0.0 0.00 0.00 0.00 79 1030.9
20201125084020 31 9 0.0 2.0 0.00 0.00 0.00 79 1031.1
20201125083520 31 9 0.0 2.0 0.00 0.00 0.00 79 1031.2
20201125083020 31 9 0.0 2.0 0.00 0.00 0.00 79 1031.2
20201125082516 31 9 0.0 0.0 0.00 0.00 0.00 79 1031.2
20201125082020 31 9 0.0 0.0 0.00 0.00 0.00 79 1031.2
20201125081542 31 9 0.0 0.0 0.00 0.00 0.00 79 1031.2
20201125081019 31 9 0.0 0.0 0.00 0.00 0.00 80 1031.4
20201125080514 31 9 0.0 0.0 0.00 0.00 0.00 80 1031.4
20201125080026 31 9 0.0 0.0 0.00 0.00 0.00 80 1031.4
20201125075513 31 9 0.0 0.0 0.00 0.00 0.00 80 1031.4
20201125075018 31 9 0.0 0.0 0.00 0.00 0.00 80 1031.4
20201125074512 31 9 0.0 0.0 0.00 0.00 0.00 80 1031.4
20201125074020 31 9 0.0 0.0 0.00 0.00 0.00 80 1031.4
20201125073512 31 9 0.0 0.0 0.00 0.00 0.00 80 1031.4
20201125073020 31 9 0.0 0.0 0.00 0.00 0.00 81 1031.3
20201125072512 31 9 0.0 0.0 0.00 0.00 0.00 82 1031.3
20201125072009 31 9 0.0 0.0 0.00 0.00 0.00 82 1031.4
20201125071049 31 9 0.0 0.0 0.00 0.00 0.00 82 1031.5
20201125070607 31 9 0.0 0.0 0.00 0.00 0.00 82 1031.4
20201125070150 31 9 0.0 0.0 0.00 0.00 0.00 82 1031.4
20201125065547 31 9 0.0 0.0 0.00 0.00 0.00 82 1031.3
20201125065046 31 9 0.0 0.0 0.00 0.00 0.00 82 1031.3
20201125064826 31 9 0.0 0.0 0.00 0.00 0.00 82 1031.3
20201125064050 31 9 0.0 0.0 0.00 0.00 0.00 83 1031.4